Flag for Switzerland Weather past 2 weeks in Vernier, Geneva, Switzerland

Now
54 °F

Partly cloudy.


Feels Like: 52 °F
Forecast: 42 / 54 °F
Wind: 6 mph from East

Location: Geneva Cointrin Airport

Current Time: Apr 27, 2015 at 7:42:43 AM

Latest Report: Apr 27, 2015 at 7:20 AM


Visibility: 4 mi

Pressure: 29.56 "Hg

Humidity: 100%

Dew point: 54 °F

Location of VernierLocation

Historic Weather in Vernier — Graph

°F

Vernier temperature yesterday

Maximum temperature yesterday: 66 °F (at 5:50 PM)
Minimum temperature yesterday: 50 °F (at 5:20 AM)
Average temperature yesterday: 57 °F

Past Weeks' High & Low Weather Summary

 TemperatureHumidityPressure
High75 °F (Apr 24, 3:50 PM)100% (Apr 12, 6:20 AM)30.45 "Hg (Apr 12, 6:20 AM)
Low39 °F (Apr 12, 6:20 AM)19% (Apr 24, 3:20 PM)29.59 "Hg (Apr 27, 5:20 AM)
Average56 °F64%30.11 "Hg
* Reported Apr 12 6:20 AM — Apr 27 6:20 AM, Vernier, Weather by CustomWeather, © 2015

Note: Actual official high and low records may vary slightly from our data, if they occured in-between our weather recording intervals... More about our weather records

Advertising

Vernier weather history for previous 24 hours

 ConditionsComfort  
Time TempWeatherWind HumidityBarometerVisibility
6:20 AM
Mon, Apr 27
54 °FRain showers. Fog.3 mph100%29.59 "Hg3 mi
5:20 AM54 °FSprinkles. Passing clouds.5 mph100%29.59 "Hg5 mi
4:50 AM54 °FSprinkles. Partly cloudy.2 mph100%29.62 "Hg5 mi
4:20 AM54 °FPartly cloudy.2 mph100%29.62 "HgN/A
3:50 AM54 °FPartly cloudy.3 mph100%29.62 "HgN/A
2:50 AM54 °FSprinkles. Partly cloudy.2 mph100%29.65 "HgN/A
2:20 AM54 °FPartly cloudy.1 mph100%29.65 "HgN/A
1:50 AM54 °FPartly cloudy.1 mph100%29.65 "HgN/A
1:20 AM54 °FPassing clouds.1 mph100%29.68 "HgN/A
12:50 AM54 °FPartly cloudy.1 mph100%29.68 "HgN/A
12:20 AM55 °FPartly cloudy.1 mph94%29.68 "HgN/A
11:50 PM
Sun, Apr 26
55 °FPassing clouds.1 mph94%29.68 "HgN/A
11:20 PM55 °FPartly cloudy.2 mph88%29.68 "HgN/A
10:50 PM57 °FScattered showers. Partly cloudy.2 mph82%29.68 "HgN/A
10:20 PM57 °FPartly cloudy.1 mph82%29.68 "HgN/A
9:50 PM57 °FPartly cloudy.2 mph82%29.68 "HgN/A
9:20 PM55 °FBroken clouds.1 mph82%29.68 "HgN/A
8:50 PM57 °FBroken clouds.2 mph82%29.68 "HgN/A
8:20 PM59 °FBroken clouds.2 mph77%29.68 "HgN/A
7:50 PM61 °FBroken clouds.3 mph72%29.68 "HgN/A
7:20 PM61 °FBroken clouds.3 mph68%29.68 "HgN/A
6:50 PM63 °FBroken clouds.5 mph68%29.68 "HgN/A
6:20 PM63 °FPartly sunny.6 mph68%29.68 "HgN/A
5:50 PM66 °FPartly sunny.2 mph56%29.68 "HgN/A
5:20 PM64 °FBroken clouds.2 mph64%29.68 "HgN/A
4:50 PM64 °FBroken clouds.2 mph64%29.71 "HgN/A
4:20 PM64 °FBroken clouds.1 mph64%29.74 "HgN/A
3:50 PM63 °FPartly sunny.2 mph68%29.74 "HgN/A
3:20 PM61 °FLight rain. Partly sunny.3 mph72%29.77 "HgN/A
2:50 PM61 °FPartly sunny.5 mph68%29.77 "HgN/A
2:20 PM63 °FPartly sunny.5 mph68%29.77 "HgN/A
1:50 PM61 °FBroken clouds.6 mph68%29.80 "HgN/A
1:20 PM63 °FBroken clouds.3 mph68%29.80 "HgN/A
12:50 PM61 °FBroken clouds.6 mph68%29.83 "HgN/A
12:20 PM61 °FBroken clouds.5 mph68%29.83 "HgN/A
11:50 AM59 °FBroken clouds.5 mph77%29.83 "HgN/A
11:20 AM57 °FLight rain. Broken clouds.3 mph82%29.83 "HgN/A
10:50 AM59 °FBroken clouds.2 mph77%29.86 "HgN/A
10:20 AM57 °FBroken clouds.2 mph82%29.86 "HgN/A
9:50 AM55 °FBroken clouds.1 mph88%29.86 "HgN/A
9:20 AM55 °FBroken clouds.1 mph88%29.86 "HgN/A
8:50 AM54 °FPartly sunny.1 mph88%29.89 "HgN/A
8:20 AM52 °FBroken clouds.2 mph100%29.89 "HgN/A
7:50 AM52 °FBroken clouds.3 mph100%29.86 "HgN/A
7:20 AM52 °FPartly cloudy.2 mph100%29.86 "HgN/A
Weather by CustomWeather, © 2015

See weather overviewHow to use our weather pages